Regional Weather Roundup
Issued by NWS

Home | Current Version | Previous Version | Text Only | Print | Product List | Glossary On
Versions: 1 2 3 4 5 6 7 8 9 10 11 12 13 14 15 16 17 18 19 20 21 22 23 24 25 26 27 28 29 30 31 32 33 34 35 36 37 38 39 40 41 42 43 44 45 46 47 48 49 50
000
ASUS45 KSLC 220010
RWRUT

UTAH REGIONAL WEATHER ROUNDUP
NATIONAL WEATHER SERVICE SALT LAKE CITY UT
600 PM MDT MON AUG 21 2017

UTZ001>011-023>025-220100-

NORTHERN UTAH

CITY           SKY/WX    TMP DP  RH WIND       PRES   REMARKS
BRIGHAM CITY   SUNNY     90  29  11 NW6       30.10S
HILL AFB       SUNNY     86  41  20 N5        30.14F
LOGAN          SUNNY     90  32  12 VRB3      30.11F
OGDEN          SUNNY     88  42  20 NW7       30.10F
SALT LAKE CITY MOSUNNY   92  44  19 NW8G16    30.08F
TOOELE VALLEY  MOSUNNY   86  46  25 N7        30.11R
WENDOVER       SUNNY     90  33  13 SE8       30.09F
HEBER CITY     MOSUNNY   82  36  18 W6        30.17S
WEST JORDAN    MOSUNNY   86  56  36 NW10      30.13R

$$

UTZ011>015-024>027-220100-

CENTRAL/NORTHEAST UTAH

CITY           SKY/WX    TMP DP  RH WIND       PRES   REMARKS
PROVO AIRPORT  MOSUNNY   84  54  34 VRB6      30.11F
MOAB/CANYONLAN SUNNY     94  37  13 E9        30.05S
DELTA          MOSUNNY   86  37  17 SW14      30.13S
PRICE          CLOUDY    84  34  16 CALM      30.20S
ROOSEVELT      SUNNY     86  34  15 W16       30.17S
VERNAL         CLOUDY    84  42  22 NW13      30.14F

$$

UTZ013>016-019>022-027-220100-

SOUTHERN UTAH

CITY           SKY/WX    TMP DP  RH WIND       PRES   REMARKS
BRYCE CANYON   NOT AVBL
CEDAR CITY     MOSUNNY   80  43  26 W3        30.21F
MILFORD        PTSUNNY   85  42  22 S12       30.15F
ST GEORGE      PTCLDY    90  50  25 SW15      30.04F
HANKSVILLE     PTSUNNY   91  36  14 W16       30.09R
BLANDING       PTSUNNY   83  42  24 W5        30.25R

$$

REGIONAL REPORTS     COLORADO/ARIZONA

CITY           SKY/WX    TMP DP  RH WIND       PRES   REMARKS
CRAIG, CO      SUNNY     85  26  11 VRB3      30.21S
GRAND JUNCTION CLOUDY    91  35  13 W10       30.07F
RIFLE, CO      SUNNY     88  35  15 E8        30.13F
MONTROSE, CO   CLOUDY    86  38  18 NW10      30.16S
CORTEZ, CO     CLOUDY    75  46  35 E25G37    30.20R
COLORADO CITY    N/A     86  46  25 W9G16     30.21F
PAGE, AZ       PTSUNNY   91  41  17 S5        30.07S
GRAND CANYON   CLOUDY    66  57  72 CALM      30.33R
KINGMAN, AZ    PTSUNNY   78  57  48 NE13      30.11F
FLAGSTAFF, AZ  PTSUNNY   70  53  54 VRB3      30.33F

$$

REGIONAL REPORTS    NEVADA/IDAHO/WYOMING

CITY           SKY/WX    TMP DP  RH WIND       PRES   REMARKS
LAS VEGAS, NV  PTSUNNY   91  51  25 NE5       30.01S
ELY, NY        CLOUDY    79  34  19 S13       30.24R
ELKO, NV       MOSUNNY   91  27  10 CALM      30.12F
POCATELLO, ID  SUNNY     84  29  13 W8        30.15F
BURLEY, ID     SUNNY     80  38  22 W7        30.12F
FORT BRIDGER,    N/A     83  30  15 N16G28    30.31S
EVANSTON, WY   LGT RAIN  74  39  28 NE21G36   30.31S
ROCK SPRINGS,  MOSUNNY   83  27  13 W12       30.25F
KEMMERER, WY     N/A     79  27  14 NW18      30.32R

$$



USA.gov is the U.S. government's official web portal to all federal, state and local government web resources and services.